SCP
0 0 0 0 0 0 0 0 0 0 0 0 0 0 0 0 0 0 0 0 0 0 0 0 0 0 0 0 0 0 0 0 0 0 0 0 0 0 0 0 0 0 0 0
0 0 0 0 0 0 0 0 0 0 0 0 0 0 0 0 0 0 0 0 0 0 0 0 0 0 0 0 0 0 0 0 0 0 0 0 0 0 0 0 0 0 0 0
0 0 0 0 0 0 0 0 0 0 0 0 0 0 0 0 0 0 0 0 0 0 0 0 0 0 0 0 0 0 0 0 0 0 0 0 0 0 0 0 0 0 0 0
0 0 0 0 0 0 0 0 0 0 0 0 0 0 0 0 0 0 0 0 0 0 0 0 0 0 0 0 0 0 0 0 0 0 0 0 0 0 0 0 0 0 0 0
0 0 0 0 0 0 0 0 0 0 0 0 0 0 0 0 0 0 0 0 0 0 0 0 0 0 0 0 0 0 0 0 0 0 0 0 0 0 0 0 0 0 0 0
0 0 0 0 0 0 0 0 0 0 0 0 0 0 0 0 0 0 0 0 0 0 0 0 0 0 0 0 0 0 0 0 0 0 0 0 0 0 0 0 0 0 0 0
0 0 0 0 0 0 0 0 0 0 0 0 0 0 0 0 0 0 0 0 0 0 0 0 0 0 0 0 0 0 0 0 0 0 0 0 0 0 0 0 0 0 0 0
0 0 0 0 0 0 0 0 0 0 0 0 0 0 0 0 0 0 0 0 0 0 0 0 0 0 0 0 0 0 0 0 0 0 0 0 0 0 0 0 0 0 0 0
0 0 0 0 0 0 0 0 0 0 0 0 0 0 0 0 0 0 0 0 0 0 0 0 0 0 0 0 0 0 0 0 0 0 0 0 0 0 0 0 0 0 0 0
0 0 0 0 0 0 0 0 0 0 0 0 0 0 0 0 0 0 0 0 0 0 0 0 0 0 0 0 0 0 0 0 0 0 0 0 0 0 0 0 0 0 0 0
0 0 0 0 0 0 0 0 0 0 0 0 0 0 0 0 0 0 0 0 0 0 0 0 0 0 0 0 0 0 0 0 0 0 0 0 0 0 0 0 0 0 0 0
0 0 0 0 0 0 0 0 0 0 0 0 0 0 0 0 0 0 0 0 0 0 0 0 0 0 0 0 0 0 0 0 0 0 0 0 0 0 0 0 0 0 0 0
0 0 0 0 0 0 0 0 0 0 0 0 0 0 0 0 0 0 0 0 0 0 0 0 0 0 0 0 0 0 0 0 0 0 0 0 0 0 0 0 0 0 0 0
0 0 0 0 0 0 0 0 0 0 0 0 0 0 0 0 0 0 0 0 0 0 0 0 0 0 0 0 0 0 0 0 0 0 0 0 0 0 0 0 0 0 0 0
0 0 0 0 0 0 0 0 0 0 0 0 0 0 0 0 0 0 0 0 0 0 0 0 0 0 0 0 0 0 0 0 0 0 0 0 0 0 0 0 0 0 0 0
0 0 0 0 0 0 0 0 0 0 0 0 0 0 0 0 0 0 0 0 0 0 0 0 0 0 0 0 0 0 0 0 0 0 0 0 0 0 0 0 0 0 0 0
0 0 0 0 0 0 0 0 0 0 0 0 0 0 0 0 0 0 0 0 0 0 0 0 0 0 0 0 0 0 0 0 0 0 0 0 0 0 0 0 0 0 0 0
0 0 0 0 0 0 0 0 0 0 0 0 0 0 0 0 0 0 0 0 0 0 0 0 0 0 0 0 0 0 0 0 0 0 0 0 0 0 0 0 0 0 0 0
0 0 0 0 0 0 0 0 0 0 0 0 0 0 0 0 0 0 0 0 0 0 0 0 0 0 0 0 0 0 0 0 0 0 0 0 0 0 0 0 0 0 0 0
0 0 0 0 0 0 0 0 0 0 0 0 0 0 0 0 0 0 0 0 0 0 0 0 0 0 0 0 0 0 0 0 0 0 0 0 0 0 0 0 0 0 0 0
0 0 0 0 0 0 0 0 0 0 0 0 0 0 0 0 0 0 0 0 0 0 0 0 0 0 0 0 0 0 0 0 0 0 0 0 0 0 0 0 0 0 0 0
0 0 0 0 0 0 0 0 0 0 0 0 0 0 0 0 0 0 0 0 0 0 0 0 0 0 0 0 0 0 0 0 0 0 0 0 0 0 0 0 0 0 0 0
0 0 0 0 0 0 0 0 0 0 0 0 0 0 0 0 0 0 0 0 0 0 0 0 0 0 0 0 0 0 0 0 0 0 0 0 0 0 0 0 0 0 0 0
0 0 0 0 0 0 0 0 0 0 0 0 0 0 0 0 0 0 0 0 0 0 0 0 0 0 0 0 0 0 0 0 0 0 0 0 0 0 0 0 0 0 0 0
0 0 0 0 0 0 0 0 0 0 0 0 0 0 0 0 0 0 0 0 0 0 0 0 0 0 0 0 0 0 0 0 0 0 0 0 0 0 0 0 0 0 0 0
0 0 0 0 0 0 0 0 0 0 0 0 0 0 0 0 0 0 0 0 0 0 0 0 0 0 0 0 0 0 0 0 0 0 0 0 0 0 0 0 0 0 0 0
Wind_Speed
3 4 7 9 9 6 4 4 6 7 5 3 9 13 16 10 7 10 9 9 9 8 4 2 1 2 4 5 7 8 9 9 8 6 5 5 3 2 2 2 2 3 3 3
3 7 9 6 5 4 3 4 6 8 4 4 7 13 13 10 9 10 11 12 11 7 4 3 3 3 4 5 6 7 8 9 8 6 4 3 4 3 2 2 3 3 3 2
11 5 5 6 5 5 5 6 7 7 6 4 6 11 8 7 5 6 8 8 8 10 9 6 5 4 4 5 6 7 8 8 8 7 6 5 4 3 2 2 2 2 2 3
7 5 4 5 7 8 7 8 7 5 3 5 2 8 10 7 8 8 8 7 9 8 7 7 6 5 5 5 5 6 7 8 8 8 8 7 5 4 3 2 2 2 3 3
8 6 7 8 9 11 8 2 3 2 3 4 2 5 12 6 9 10 8 8 8 8 9 9 7 6 5 5 5 6 7 7 7 7 8 7 5 4 3 3 3 3 2 3
5 4 7 8 5 7 5 6 4 4 3 4 5 6 11 7 8 8 5 6 8 8 7 7 6 5 5 5 5 6 8 6 6 7 7 8 8 7 6 4 3 2 1 1
3 3 4 4 5 3 5 5 2 3 1 7 3 4 13 12 8 8 9 7 7 8 9 9 9 8 7 7 7 7 8 7 6 7 6 7 7 7 7 5 4 3 2 1
8 6 8 7 8 8 7 10 8 6 5 5 2 8 12 10 8 8 7 6 7 9 9 10 10 9 8 8 8 8 8 7 7 7 6 6 6 5 4 4 4 3 2 2
11 8 3 5 5 12 8 6 7 5 2 3 7 8 13 7 5 5 4 2 6 9 10 10 9 9 9 9 9 9 9 7 7 7 7 6 6 5 5 4 3 3 2 2
10 5 3 3 4 2 7 9 6 5 4 5 6 6 7 8 8 6 4 4 5 7 8 8 9 9 8 8 7 7 8 8 7 7 6 5 5 5 5 5 4 3 3 2
7 7 2 3 8 10 6 5 5 5 5 6 4 9 8 8 6 7 7 5 6 8 10 10 9 8 7 7 7 7 7 7 7 7 6 6 5 5 5 4 4 4 3 3
7 7 4 7 4 6 7 9 10 7 6 5 4 10 7 5 6 6 7 5 5 7 7 7 8 8 8 9 8 8 8 8 8 7 7 6 6 5 5 4 4 4 3 3
10 8 5 0 1 2 4 6 7 6 5 6 6 10 5 3 5 4 4 4 4 5 6 7 8 9 10 10 9 9 9 8 7 7 7 7 6 6 5 5 4 3 3 3
9 7 9 12 8 8 7 7 8 8 6 7 10 10 9 8 7 7 6 5 4 5 7 8 9 10 10 10 10 10 9 8 8 8 8 7 7 6 6 5 4 4 3 3
8 7 6 5 5 6 7 9 11 12 12 11 10 11 14 11 9 8 6 5 5 6 8 10 10 10 9 10 9 9 9 9 9 9 8 7 6 5 5 4 4 4 4 4
7 7 7 5 5 6 5 7 10 11 10 10 9 12 12 8 5 6 7 6 7 9 9 9 9 9 11 11 11 10 10 9 9 9 8 6 6 5 5 4 4 3 4 4
8 8 7 5 3 2 8 10 11 8 9 10 14 16 10 6 8 8 7 7 9 9 8 9 10 10 11 11 11 12 10 9 9 8 7 6 6 5 5 4 4 4 4 4
11 9 5 5 5 9 10 5 9 10 10 11 9 9 8 9 7 6 6 7 8 7 7 7 7 7 7 7 7 8 8 9 8 7 6 6 6 5 4 4 4 5 4 4
6 10 6 5 6 8 8 5 8 9 10 10 12 11 8 2 2 5 6 6 7 6 5 5 5 5 6 7 8 9 8 7 7 7 7 6 6 5 4 5 5 4 4 5
4 6 7 6 6 9 9 5 5 5 7 8 9 10 6 5 1 6 2 3 3 2 2 3 4 5 6 6 8 9 8 7 7 7 6 5 5 5 5 6 5 4 4 6
5 4 6 6 6 9 8 3 7 6 10 4 6 7 7 8 7 3 0 1 2 2 3 4 5 5 5 7 8 8 7 7 6 5 4 4 4 5 5 4 4 4 5 5
11 8 7 7 6 10 6 8 10 10 4 3 4 5 7 7 3 1 1 2 3 3 4 5 5 4 4 6 7 7 6 4 4 4 4 4 4 3 3 4 5 5 5 6
9 10 9 11 10 6 8 9 7 4 5 4 4 4 5 5 4 3 3 3 3 3 4 4 5 5 4 4 5 6 4 4 4 3 3 3 3 4 4 4 5 5 4 5
4 3 5 4 7 6 6 5 4 5 5 4 4 5 7 6 5 4 3 3 3 3 4 4 5 5 4 3 3 4 4 4 4 3 3 3 3 4 4 4 4 5 5 6
7 7 5 5 5 3 5 8 8 6 5 4 4 5 6 6 5 5 4 4 4 4 3 4 5 5 4 3 3 3 3 4 3 3 3 3 4 4 5 5 5 6 7 8
6 9 10 8 9 8 7 5 7 7 7 7 6 4 3 5 5 5 4 4 4 4 4 4 4 4 3 3 3 2 3 3 3 3 4 3 4 4 4 5 6 11 13 17
Wind_Direction
126 128 194 200 194 192 186 211 252 261 267 265 260 267 275 272 242 241 238 233 232 233 238 219 169 136 132 141 152 160 160 160 157 155 152 148 149 142 135 140 137 141 143 149
102 226 215 186 180 183 196 240 267 283 279 239 273 276 271 262 239 228 225 224 221 217 210 196 168 145 142 147 150 153 158 159 162 159 148 137 131 126 121 114 102 100 116 128
185 216 173 161 174 189 213 214 237 260 312 318 314 298 286 282 256 250 233 221 212 203 198 190 176 163 145 148 155 155 155 155 151 141 125 108 93 86 94 99 93 77 101 110
214 220 153 168 193 178 235 224 220 251 298 293 349 298 289 280 288 266 245 223 211 200 187 182 176 168 163 157 147 141 142 145 145 145 148 147 146 149 157 143 124 92 79 92
218 188 177 198 204 176 211 198 181 219 221 287 274 255 282 298 281 271 249 226 213 198 185 182 178 169 157 148 142 137 133 135 141 146 149 143 133 129 123 115 113 96 71 78
216 200 190 201 193 174 145 81 62 51 77 275 233 210 278 256 245 273 271 231 211 193 183 174 159 146 142 140 138 138 135 133 140 141 143 144 142 139 136 135 134 119 94 74
221 230 210 158 119 116 128 111 19 330 321 251 231 215 253 255 252 255 268 250 209 185 176 171 167 167 163 159 155 150 143 140 143 141 143 147 147 149 152 153 153 146 137 136
177 232 204 185 167 164 175 156 172 208 232 277 258 237 256 264 275 273 264 242 191 182 182 182 180 175 172 169 164 158 153 148 149 146 145 142 143 142 144 149 152 158 165 174
176 220 230 194 174 145 152 193 172 143 200 266 270 278 296 288 295 304 303 222 194 190 186 185 180 178 177 175 174 168 160 154 156 152 144 143 144 145 147 146 145 150 162 170
149 189 228 151 99 70 154 149 125 151 193 246 274 268 256 288 300 307 294 249 218 195 188 186 184 184 182 178 170 166 163 161 158 155 153 151 152 151 148 146 154 161 169 170
136 148 146 150 184 176 138 150 152 156 172 181 249 264 232 243 274 286 281 252 217 201 196 193 188 182 174 168 167 170 168 159 159 160 155 150 153 151 150 156 167 171 176 182
145 133 182 223 227 185 170 172 154 167 212 194 204 265 264 249 270 272 276 261 221 206 199 190 180 172 174 178 177 177 174 170 169 162 157 157 155 154 159 170 178 178 186 198
147 141 138 11 302 177 200 193 184 156 146 173 193 258 284 290 291 282 272 268 234 207 194 184 180 184 188 186 184 182 180 176 166 160 158 159 163 167 175 182 186 188 195 212
139 146 176 191 199 177 189 198 181 161 187 210 221 246 280 284 287 290 282 266 239 216 201 193 195 196 192 188 185 182 181 173 166 163 165 172 179 181 183 186 191 200 205 218
144 175 190 196 179 164 188 193 185 197 204 209 227 231 249 253 256 265 270 264 240 227 213 205 203 198 190 186 184 182 179 173 168 167 174 183 180 177 180 190 202 210 219 230
148 168 170 205 197 189 215 214 200 213 220 230 248 260 252 253 252 259 257 248 243 237 225 214 205 197 193 190 186 181 179 175 169 174 181 176 173 179 190 201 208 219 234 243
155 140 150 207 182 160 245 213 198 204 206 197 224 241 252 253 247 246 249 240 238 238 229 215 206 201 197 191 183 182 177 166 169 175 175 175 178 188 201 205 212 228 239 243
152 143 141 147 139 223 240 205 195 206 224 210 223 239 238 234 245 246 233 232 241 235 224 213 201 196 188 176 168 160 155 162 169 173 177 180 183 195 202 209 226 237 238 244
148 142 135 149 197 259 287 241 184 193 246 221 222 241 245 235 309 284 239 220 228 224 210 201 189 177 163 160 155 148 153 159 167 179 186 188 187 194 205 221 235 239 242 251
83 121 133 148 180 227 239 228 169 135 264 243 208 226 222 140 205 267 266 208 211 182 161 151 140 136 147 152 146 148 157 165 184 190 191 188 188 196 212 227 239 241 241 252
126 127 153 163 202 249 244 184 125 165 238 237 192 200 179 186 208 236 130 142 140 123 119 124 129 136 147 144 143 152 163 186 190 177 175 186 196 206 220 232 240 247 253 261
163 162 175 158 192 243 211 149 182 211 209 181 182 185 186 203 208 189 169 150 131 120 120 127 129 129 134 144 148 158 181 182 160 163 179 199 210 220 224 234 251 252 254 265
188 181 176 186 207 219 180 193 210 183 186 195 188 190 175 180 197 190 178 163 148 140 137 133 135 132 136 151 156 167 178 159 158 170 197 215 226 232 230 234 250 259 253 258
232 156 149 208 245 234 223 227 226 203 205 199 183 172 168 180 188 184 176 170 162 153 150 140 140 146 159 164 161 166 164 161 164 193 219 228 237 249 245 240 242 249 254 258
185 161 168 217 250 266 253 224 215 203 199 181 172 177 181 175 181 182 181 180 173 162 152 150 158 164 171 164 168 170 169 164 183 213 232 243 243 248 257 251 243 248 241 244
181 170 172 207 208 193 222 218 189 185 196 190 174 172 175 177 178 169 176 175 165 160 151 151 160 164 169 169 183 191 186 181 192 230 245 247 251 254 256 266 277 263 262 272